﻿測定場所 (Monitoring sites),日付 (Measurement date),時間 (Measurement time),線量率 最大値 (max) μGy/h,線量率 最小値 (min) μGy/h,線量率 平均値 (average) μGy/h,
江戸川 (Edogawa),2014-10-26,23:01～24:00,0.0757,0.0660,0.0706,
江戸川 (Edogawa),2014-10-26,22:01～23:00,0.0736,0.0667,0.0701,
江戸川 (Edogawa),2014-10-26,21:01～22:00,0.0724,0.0663,0.0691,
江戸川 (Edogawa),2014-10-26,20:01～21:00,0.0747,0.0657,0.0689,
江戸川 (Edogawa),2014-10-26,19:01～20:00,0.0727,0.0650,0.0690,
江戸川 (Edogawa),2014-10-26,18:01～19:00,0.0720,0.0657,0.0689,
江戸川 (Edogawa),2014-10-26,17:01～18:00,0.0717,0.0645,0.0687,
江戸川 (Edogawa),2014-10-26,16:01～17:00,0.0726,0.0658,0.0690,
江戸川 (Edogawa),2014-10-26,15:01～16:00,0.0716,0.0655,0.0685,
江戸川 (Edogawa),2014-10-26,14:01～15:00,0.0727,0.0650,0.0686,
江戸川 (Edogawa),2014-10-26,13:01～14:00,0.0727,0.0662,0.0689,
江戸川 (Edogawa),2014-10-26,12:01～13:00,0.0732,0.0660,0.0697,
江戸川 (Edogawa),2014-10-26,11:01～12:00,0.0736,0.0650,0.0695,
江戸川 (Edogawa),2014-10-26,10:01～11:00,0.0734,0.0668,0.0700,
江戸川 (Edogawa),2014-10-26,09:01～10:00,0.0738,0.0667,0.0700,
江戸川 (Edogawa),2014-10-26,08:01～09:00,0.0727,0.0659,0.0698,
江戸川 (Edogawa),2014-10-26,07:01～08:00,0.0744,0.0669,0.0702,
江戸川 (Edogawa),2014-10-26,06:01～07:00,0.0739,0.0655,0.0694,
江戸川 (Edogawa),2014-10-26,05:01～06:00,0.0751,0.0670,0.0699,
江戸川 (Edogawa),2014-10-26,04:01～05:00,0.0732,0.0663,0.0700,
江戸川 (Edogawa),2014-10-26,03:01～04:00,0.0742,0.0657,0.0696,
江戸川 (Edogawa),2014-10-26,02:01～03:00,0.0735,0.0655,0.0693,
江戸川 (Edogawa),2014-10-26,01:01～02:00,0.0730,0.0652,0.0694,
江戸川 (Edogawa),2014-10-26,00:01～01:00,0.0733,0.0654,0.0694,
江戸川 (Edogawa),2014-10-25,23:01～24:00,0.0724,0.0653,0.0687,
江戸川 (Edogawa),2014-10-25,22:01～23:00,0.0725,0.0655,0.0691,
江戸川 (Edogawa),2014-10-25,21:01～22:00,0.0720,0.0656,0.0691,
江戸川 (Edogawa),2014-10-25,20:01～21:00,0.0730,0.0655,0.0691,
江戸川 (Edogawa),2014-10-25,19:01～20:00,0.0722,0.0644,0.0688,
江戸川 (Edogawa),2014-10-25,18:01～19:00,0.0738,0.0653,0.0685,
江戸川 (Edogawa),2014-10-25,17:01～18:00,0.0726,0.0655,0.0685,
江戸川 (Edogawa),2014-10-25,16:01～17:00,0.0717,0.0648,0.0684,
江戸川 (Edogawa),2014-10-25,15:01～16:00,0.0725,0.0661,0.0688,
江戸川 (Edogawa),2014-10-25,14:01～15:00,0.0723,0.0651,0.0689,
江戸川 (Edogawa),2014-10-25,13:01～14:00,0.0729,0.0649,0.0689,
江戸川 (Edogawa),2014-10-25,12:01～13:00,0.0730,0.0656,0.0685,
江戸川 (Edogawa),2014-10-25,11:01～12:00,0.0741,0.0643,0.0689,
江戸川 (Edogawa),2014-10-25,10:01～11:00,0.0754,0.0640,0.0690,
江戸川 (Edogawa),2014-10-25,09:01～10:00,0.0724,0.0648,0.0693,
江戸川 (Edogawa),2014-10-25,08:01～09:00,0.0732,0.0661,0.0689,
江戸川 (Edogawa),2014-10-25,07:01～08:00,0.0725,0.0664,0.0690,
江戸川 (Edogawa),2014-10-25,06:01～07:00,0.0723,0.0648,0.0683,
江戸川 (Edogawa),2014-10-25,05:01～06:00,0.0728,0.0649,0.0687,
江戸川 (Edogawa),2014-10-25,04:01～05:00,0.0720,0.0650,0.0684,
江戸川 (Edogawa),2014-10-25,03:01～04:00,0.0718,0.0648,0.0682,
江戸川 (Edogawa),2014-10-25,02:01～03:00,0.0705,0.0637,0.0677,
江戸川 (Edogawa),2014-10-25,01:01～02:00,0.0725,0.0651,0.0681,
江戸川 (Edogawa),2014-10-25,00:01～01:00,0.0721,0.0650,0.0679,
江戸川 (Edogawa),2014-10-24,23:01～24:00,0.0716,0.0640,0.0682,
江戸川 (Edogawa),2014-10-24,22:01～23:00,0.0712,0.0651,0.0687,
江戸川 (Edogawa),2014-10-24,21:01～22:00,0.0722,0.0649,0.0685,
江戸川 (Edogawa),2014-10-24,20:01～21:00,0.0722,0.0653,0.0686,
江戸川 (Edogawa),2014-10-24,19:01～20:00,0.0722,0.0636,0.0685,
江戸川 (Edogawa),2014-10-24,18:01～19:00,0.0728,0.0652,0.0683,
江戸川 (Edogawa),2014-10-24,17:01～18:00,0.0719,0.0644,0.0687,
江戸川 (Edogawa),2014-10-24,16:01～17:00,0.0730,0.0656,0.0688,
江戸川 (Edogawa),2014-10-24,15:01～16:00,0.0720,0.0654,0.0686,
江戸川 (Edogawa),2014-10-24,14:01～15:00,0.0714,0.0655,0.0689,
江戸川 (Edogawa),2014-10-24,13:01～14:00,0.0719,0.0664,0.0691,
江戸川 (Edogawa),2014-10-24,12:01～13:00,0.0714,0.0649,0.0683,
江戸川 (Edogawa),2014-10-24,11:01～12:00,0.0744,0.0652,0.0690,
江戸川 (Edogawa),2014-10-24,10:01～11:00,0.0737,0.0638,0.0686,
江戸川 (Edogawa),2014-10-24,09:01～10:00,0.0739,0.0638,0.0683,
江戸川 (Edogawa),2014-10-24,08:01～09:00,0.0713,0.0645,0.0678,
江戸川 (Edogawa),2014-10-24,07:01～08:00,0.0721,0.0656,0.0680,
江戸川 (Edogawa),2014-10-24,06:01～07:00,0.0719,0.0647,0.0684,
江戸川 (Edogawa),2014-10-24,05:01～06:00,0.0725,0.0658,0.0683,
江戸川 (Edogawa),2014-10-24,04:01～05:00,0.0722,0.0645,0.0686,
江戸川 (Edogawa),2014-10-24,03:01～04:00,0.0725,0.0645,0.0683,
江戸川 (Edogawa),2014-10-24,02:01～03:00,0.0718,0.0649,0.0678,
江戸川 (Edogawa),2014-10-24,01:01～02:00,0.0717,0.0646,0.0676,
江戸川 (Edogawa),2014-10-24,00:01～01:00,0.0701,0.0644,0.0676,
江戸川 (Edogawa),2014-10-23,23:01～24:00,0.0719,0.0639,0.0685,
江戸川 (Edogawa),2014-10-23,22:01～23:00,0.0719,0.0658,0.0691,
江戸川 (Edogawa),2014-10-23,21:01～22:00,0.0729,0.0665,0.0696,
江戸川 (Edogawa),2014-10-23,20:01～21:00,0.0724,0.0654,0.0684,
江戸川 (Edogawa),2014-10-23,19:01～20:00,0.0708,0.0643,0.0678,
江戸川 (Edogawa),2014-10-23,18:01～19:00,0.0712,0.0652,0.0683,
江戸川 (Edogawa),2014-10-23,17:01～18:00,0.0717,0.0629,0.0677,
江戸川 (Edogawa),2014-10-23,16:01～17:00,0.0703,0.0633,0.0673,
江戸川 (Edogawa),2014-10-23,15:01～16:00,0.0708,0.0630,0.0679,
江戸川 (Edogawa),2014-10-23,14:01～15:00,0.0734,0.0651,0.0683,
江戸川 (Edogawa),2014-10-23,13:01～14:00,0.0748,0.0654,0.0709,
江戸川 (Edogawa),2014-10-23,12:01～13:00,0.0775,0.0693,0.0728,
江戸川 (Edogawa),2014-10-23,11:01～12:00,0.0801,0.0705,0.0742,
江戸川 (Edogawa),2014-10-23,10:01～11:00,0.0794,0.0657,0.0699,
江戸川 (Edogawa),2014-10-23,09:01～10:00,0.0752,0.0673,0.0713,
江戸川 (Edogawa),2014-10-23,08:01～09:00,0.0781,0.0708,0.0742,
江戸川 (Edogawa),2014-10-23,07:01～08:00,0.0788,0.0646,0.0721,
江戸川 (Edogawa),2014-10-23,06:01～07:00,0.0718,0.0637,0.0682,
江戸川 (Edogawa),2014-10-23,05:01～06:00,0.0729,0.0658,0.0692,
江戸川 (Edogawa),2014-10-23,04:01～05:00,0.0755,0.0667,0.0710,
江戸川 (Edogawa),2014-10-23,03:01～04:00,0.0849,0.0720,0.0777,
江戸川 (Edogawa),2014-10-23,02:01～03:00,0.0833,0.0725,0.0777,
江戸川 (Edogawa),2014-10-23,01:01～02:00,0.0821,0.0675,0.0731,
江戸川 (Edogawa),2014-10-23,00:01～01:00,0.0808,0.0708,0.0751,
江戸川 (Edogawa),2014-10-22,23:01～24:00,0.0826,0.0693,0.0746,
江戸川 (Edogawa),2014-10-22,22:01～23:00,0.0874,0.0725,0.0790,
江戸川 (Edogawa),2014-10-22,21:01～22:00,0.0824,0.0725,0.0781,
江戸川 (Edogawa),2014-10-22,20:01～21:00,0.0841,0.0735,0.0777,
江戸川 (Edogawa),2014-10-22,19:01～20:00,0.0842,0.0728,0.0773,
江戸川 (Edogawa),2014-10-22,18:01～19:00,0.0857,0.0737,0.0781,
江戸川 (Edogawa),2014-10-22,17:01～18:00,0.0846,0.0725,0.0782,
江戸川 (Edogawa),2014-10-22,16:01～17:00,0.0871,0.0737,0.0795,
江戸川 (Edogawa),2014-10-22,15:01～16:00,0.0851,0.0729,0.0783,
江戸川 (Edogawa),2014-10-22,14:01～15:00,0.0820,0.0723,0.0764,
江戸川 (Edogawa),2014-10-22,13:01～14:00,0.0821,0.0718,0.0760,
江戸川 (Edogawa),2014-10-22,12:01～13:00,0.0741,0.0658,0.0695,
江戸川 (Edogawa),2014-10-22,11:01～12:00,0.0731,0.0646,0.0685,
江戸川 (Edogawa),2014-10-22,10:01～11:00,0.0728,0.0657,0.0692,
江戸川 (Edogawa),2014-10-22,09:01～10:00,0.0765,0.0674,0.0712,
江戸川 (Edogawa),2014-10-22,08:01～09:00,0.0781,0.0695,0.0729,
江戸川 (Edogawa),2014-10-22,07:01～08:00,0.0821,0.0712,0.0763,
江戸川 (Edogawa),2014-10-22,06:01～07:00,0.0835,0.0687,0.0738,
江戸川 (Edogawa),2014-10-22,05:01～06:00,0.0750,0.0662,0.0702,
江戸川 (Edogawa),2014-10-22,04:01～05:00,0.0745,0.0667,0.0704,
江戸川 (Edogawa),2014-10-22,03:01～04:00,0.0728,0.0671,0.0702,
江戸川 (Edogawa),2014-10-22,02:01～03:00,0.0738,0.0676,0.0706,
江戸川 (Edogawa),2014-10-22,01:01～02:00,0.0731,0.0641,0.0698,
江戸川 (Edogawa),2014-10-22,00:01～01:00,0.0732,0.0654,0.0693,
江戸川 (Edogawa),2014-10-21,23:01～24:00,0.0732,0.0656,0.0697,
江戸川 (Edogawa),2014-10-21,22:01～23:00,0.0732,0.0653,0.0699,
江戸川 (Edogawa),2014-10-21,21:01～22:00,0.0734,0.0661,0.0695,
江戸川 (Edogawa),2014-10-21,20:01～21:00,0.0732,0.0662,0.0693,
江戸川 (Edogawa),2014-10-21,19:01～20:00,0.0736,0.0654,0.0692,
江戸川 (Edogawa),2014-10-21,18:01～19:00,0.0737,0.0661,0.0692,
江戸川 (Edogawa),2014-10-21,17:01～18:00,0.0728,0.0651,0.0692,
江戸川 (Edogawa),2014-10-21,16:01～17:00,0.0732,0.0661,0.0691,
江戸川 (Edogawa),2014-10-21,15:01～16:00,0.0735,0.0664,0.0696,
江戸川 (Edogawa),2014-10-21,14:01～15:00,0.0721,0.0659,0.0691,
江戸川 (Edogawa),2014-10-21,13:01～14:00,0.0737,0.0664,0.0697,
江戸川 (Edogawa),2014-10-21,12:01～13:00,0.0748,0.0667,0.0709,
江戸川 (Edogawa),2014-10-21,11:01～12:00,0.0747,0.0667,0.0715,
江戸川 (Edogawa),2014-10-21,10:01～11:00,0.0779,0.0683,0.0724,
江戸川 (Edogawa),2014-10-21,09:01～10:00,0.0783,0.0706,0.0731,
江戸川 (Edogawa),2014-10-21,08:01～09:00,0.0847,0.0710,0.0748,
江戸川 (Edogawa),2014-10-21,07:01～08:00,0.0783,0.0675,0.0727,
江戸川 (Edogawa),2014-10-21,06:01～07:00,0.0737,0.0668,0.0710,
江戸川 (Edogawa),2014-10-21,05:01～06:00,0.0758,0.0691,0.0725,
江戸川 (Edogawa),2014-10-21,04:01～05:00,0.0763,0.0671,0.0718,
江戸川 (Edogawa),2014-10-21,03:01～04:00,0.0735,0.0669,0.0702,
江戸川 (Edogawa),2014-10-21,02:01～03:00,0.0741,0.0656,0.0700,
江戸川 (Edogawa),2014-10-21,01:01～02:00,0.0733,0.0671,0.0699,
江戸川 (Edogawa),2014-10-21,00:01～01:00,0.0751,0.0671,0.0707,
江戸川 (Edogawa),2014-10-20,23:01～24:00,0.0759,0.0684,0.0715,
江戸川 (Edogawa),2014-10-20,22:01～23:00,0.0786,0.0685,0.0730,
江戸川 (Edogawa),2014-10-20,21:01～22:00,0.0746,0.0681,0.0716,
江戸川 (Edogawa),2014-10-20,20:01～21:00,0.0755,0.0679,0.0716,
江戸川 (Edogawa),2014-10-20,19:01～20:00,0.0764,0.0675,0.0712,
江戸川 (Edogawa),2014-10-20,18:01～19:00,0.0734,0.0670,0.0708,
江戸川 (Edogawa),2014-10-20,17:01～18:00,0.0735,0.0683,0.0708,
江戸川 (Edogawa),2014-10-20,16:01～17:00,0.0751,0.0662,0.0712,
江戸川 (Edogawa),2014-10-20,15:01～16:00,0.0741,0.0669,0.0711,
江戸川 (Edogawa),2014-10-20,14:01～15:00,0.0731,0.0672,0.0704,
江戸川 (Edogawa),2014-10-20,13:01～14:00,0.0753,0.0670,0.0702,
江戸川 (Edogawa),2014-10-20,12:01～13:00,0.0739,0.0657,0.0705,
江戸川 (Edogawa),2014-10-20,11:01～12:00,0.0746,0.0656,0.0706,
江戸川 (Edogawa),2014-10-20,10:01～11:00,0.0750,0.0673,0.0711,
江戸川 (Edogawa),2014-10-20,09:01～10:00,0.0754,0.0674,0.0715,
江戸川 (Edogawa),2014-10-20,08:01～09:00,0.0737,0.0677,0.0711,
江戸川 (Edogawa),2014-10-20,07:01～08:00,0.0743,0.0666,0.0706,
江戸川 (Edogawa),2014-10-20,06:01～07:00,0.0745,0.0673,0.0707,
江戸川 (Edogawa),2014-10-20,05:01～06:00,0.0747,0.0666,0.0706,
江戸川 (Edogawa),2014-10-20,04:01～05:00,0.0757,0.0666,0.0710,
江戸川 (Edogawa),2014-10-20,03:01～04:00,0.0745,0.0669,0.0716,
江戸川 (Edogawa),2014-10-20,02:01～03:00,0.0753,0.0675,0.0713,
江戸川 (Edogawa),2014-10-20,01:01～02:00,0.0735,0.0669,0.0702,
江戸川 (Edogawa),2014-10-20,00:01～01:00,0.0739,0.0656,0.0706,
